STARLINK-1608, 46146

Orbit data source: Space-Track

STARLINK-1608, 46146 is a payload satellite owned by SpaceX/Seattle (US) in LEO that was launched on Tue, 18 Aug 2020 UTC via an FALCON 9 launch vehicle from the Air Force Eastern Test Range (AFETR). Payload-class satellites include a variety of spacecraft equipped with specific instruments for various scientific and technological missions. These include communications satellites like Starlink; space stations such as the ISS; scientific satellites like the Hubble; Earth observation satellites from companies like Planet Labs, Umbra, and HawkEye 360; GPS; miniature CubeSats for education and research; and military/defense satellites.

Loading next visibility...
Identifier
46146, 2020-057AF
Orbit
LEO
Last TLE update
5 hours ago
Origin
Manufacturer
SpaceX/Seattle
Mission
Operational Commercial Communications
Bus & Motor
STARLINK, Unknown motor
Mass
260 kg wet, ~248 kg dry
Launch date (UTC)
2020-08-18 (5 years ago)
Launch vehicle
FALCON 9
Launch site
Air Force Eastern Test Range (AFETR)
Object type
Payload
Rocket body
Debris
Shape & HBR
Box + 1 Pan, 8.86 m
Radar Cross Section
13.562 m², Large (>1 m²)

Expand to show TLE details & history

TLE from 5 hours ago
0 STARLINK-1608
1 46146U 20057AF  25181.86960101  .00001048  00000-0  89254-4 0  9998
2 46146  53.0558   7.0846 0001394  90.1340 269.9808 15.06393259268773
Epoch: 2025-06-30T20:52Z
TLE epoch observation values (Epoch: 2025-06-30T20:52:13.527Z)
Latitude
-0.00007°
Longitude
134.85497°
Altitude
548.112 km
Speed
7.589 km/s
True Right ascension
00h 28m 20s
True Declination
0° 00' 00"
Sunlit
Object was in daylight at epoch
Visualization orbit readout
Latitude
22.92609°
Longitude
152.37838°
Altitude
547.5 km
Speed
7.592 km/s
Apparent Right ascension
01h 31m 58s
Apparent Declination
-7° 01' 13"
Sunlit
Object is in daylight
Visualization observer readout
Local Sidereal Time
13:23:33
Azimuth
356.161° N
Elevation
-57.05°
Doppler factor
1
Orbital elements
Apogee altitude
548.468 km
Perigee altitude
546.537 km
Semi-major axis
6,925.64 km
Eccentricity
0.00014
Inclination
53.0558°
RAAN
7.0846°
Arg. of periapsis
90.134°
True anomaly
Unknown
Mean anomaly
269.9808°
Eccentric anomaly
Unknown
Mean motion
3.76577 °/min
Orbital period
95.6 mins
BSTAR
0.000089254
Loading maneuver chart data...
Loading SW <> Apogee altitude chart data...
Loading historical data...
Loading historical data...
Loading historical data...
Loading historical data...
Loading historical data...
Loading historical data...
Loading historical data...

STARLINK-1608 Visibility forecast

Observer location: undefined°, undefined°

Span
Click to sort rows by Start time (UTC) header in descending order
Start Az.
Max El. time (UTC)
Max El. Az.
Max El.
End time (UTC)
End Az.
7 mins2025-07-01 14:32:32.320Z203.955° SW2025-07-01 14:35:32.320Z153.327° SSE33.914°2025-07-01 14:39:32.320Z63.282° ENE
5 mins2025-07-01 16:13:32.320Z283.591° WNW2025-07-01 16:15:32.320Z329.819° NNW27.251°2025-07-01 16:18:32.320Z29.397° NE
4 mins2025-07-01 19:35:32.320Z348.527° N2025-07-01 19:37:32.320Z22.392° NNE15.097°2025-07-01 19:39:32.320Z51.989° ENE
6 mins2025-07-01 21:14:32.320Z324.935° NNW2025-07-01 21:17:32.320Z40.925° NE35.986°2025-07-01 21:20:32.320Z104.841° ESE
5 mins2025-07-01 22:54:32.320Z273.687° WNW2025-07-01 22:56:32.320Z234.835° WSW22.784°2025-07-01 22:59:32.320Z179.707° S
|